Year,Month,Day,Hour,Minute,Value (Times are PST for temperature in C)
2018,08,07,00,00,18.30
2018,08,07,00,01,18.30
2018,08,07,00,02,18.30
2018,08,07,00,03,18.30
2018,08,07,00,04,18.30
2018,08,07,00,05,18.30
2018,08,07,00,06,18.30
2018,08,07,00,07,18.30
2018,08,07,00,08,18.20
2018,08,07,00,09,18.20
2018,08,07,00,10,18.20
2018,08,07,00,11,18.20
2018,08,07,00,12,18.20
2018,08,07,00,13,18.20
2018,08,07,00,14,18.20
2018,08,07,00,15,18.20
2018,08,07,00,16,18.20
2018,08,07,00,17,18.20
2018,08,07,00,18,18.10
2018,08,07,00,19,18.10
2018,08,07,00,20,18.10
2018,08,07,00,21,18.10
2018,08,07,00,22,18.00
2018,08,07,00,23,18.00
2018,08,07,00,24,18.00
2018,08,07,00,25,18.00
2018,08,07,00,26,18.00
2018,08,07,00,27,17.90
2018,08,07,00,28,17.90
2018,08,07,00,29,17.90
2018,08,07,00,30,17.90
2018,08,07,00,31,17.90
2018,08,07,00,32,17.90
2018,08,07,00,33,17.90
2018,08,07,00,34,17.90
2018,08,07,00,35,17.90
2018,08,07,00,36,17.90
2018,08,07,00,37,17.90
2018,08,07,00,38,17.80
2018,08,07,00,39,17.80
2018,08,07,00,40,17.80
2018,08,07,00,41,17.80
2018,08,07,00,42,17.80
2018,08,07,00,43,17.80
2018,08,07,00,44,17.80
2018,08,07,00,45,17.70
2018,08,07,00,46,17.70
2018,08,07,00,47,17.70
2018,08,07,00,48,17.70
2018,08,07,00,49,17.70
2018,08,07,00,50,17.70
2018,08,07,00,51,17.70
2018,08,07,00,52,17.70
2018,08,07,00,53,17.70
2018,08,07,00,54,17.70
2018,08,07,00,55,17.60
2018,08,07,00,56,17.60
2018,08,07,00,57,17.60
2018,08,07,00,58,17.60
2018,08,07,00,59,17.50
2018,08,07,01,00,17.50
2018,08,07,01,01,17.50
2018,08,07,01,02,17.40
2018,08,07,01,03,17.40
2018,08,07,01,04,17.40
2018,08,07,01,05,17.40
2018,08,07,01,06,17.40
2018,08,07,01,07,17.40
2018,08,07,01,08,17.40
2018,08,07,01,09,17.40
2018,08,07,01,10,17.40
2018,08,07,01,11,17.40
2018,08,07,01,12,17.40
2018,08,07,01,13,17.40
2018,08,07,01,14,17.40
2018,08,07,01,15,17.40
2018,08,07,01,16,17.40
2018,08,07,01,17,17.30
2018,08,07,01,18,17.30
2018,08,07,01,19,17.30
2018,08,07,01,20,17.30
2018,08,07,01,21,17.30
2018,08,07,01,22,17.30
2018,08,07,01,23,17.20
2018,08,07,01,24,17.20
2018,08,07,01,25,17.20
2018,08,07,01,26,17.20
2018,08,07,01,27,17.20
2018,08,07,01,28,17.20
2018,08,07,01,29,17.10
2018,08,07,01,30,17.10
2018,08,07,01,31,17.10
2018,08,07,01,32,17.10
2018,08,07,01,33,17.10
2018,08,07,01,34,17.10
2018,08,07,01,35,17.10
2018,08,07,01,36,17.00
2018,08,07,01,37,17.00
2018,08,07,01,38,17.00
2018,08,07,01,39,17.00
2018,08,07,01,40,17.00
2018,08,07,01,41,17.00
2018,08,07,01,42,17.00
2018,08,07,01,43,17.00
2018,08,07,01,44,17.00
2018,08,07,01,45,17.00
2018,08,07,01,46,17.00
2018,08,07,01,47,16.90
2018,08,07,01,48,16.90
2018,08,07,01,49,16.90
2018,08,07,01,50,16.90
2018,08,07,01,51,16.90
2018,08,07,01,52,16.90
2018,08,07,01,53,16.90
2018,08,07,01,54,16.90
2018,08,07,01,55,16.90
2018,08,07,01,56,16.90
2018,08,07,01,57,16.90
2018,08,07,01,58,16.90
2018,08,07,01,59,16.90
2018,08,07,02,00,16.90
2018,08,07,02,01,16.90
2018,08,07,02,02,16.90
2018,08,07,02,03,16.90
2018,08,07,02,04,16.80
2018,08,07,02,05,16.80
2018,08,07,02,06,16.80
2018,08,07,02,07,16.80
2018,08,07,02,08,16.80
2018,08,07,02,09,16.80
2018,08,07,02,10,16.80
2018,08,07,02,11,16.80
2018,08,07,02,12,16.80
2018,08,07,02,13,16.80
2018,08,07,02,14,16.80
2018,08,07,02,15,16.80
2018,08,07,02,16,16.80
2018,08,07,02,17,16.80
2018,08,07,02,18,16.80
2018,08,07,02,19,16.70
2018,08,07,02,20,16.70
2018,08,07,02,21,16.70
2018,08,07,02,22,16.70
2018,08,07,02,23,16.70
2018,08,07,02,24,16.60
2018,08,07,02,25,16.60
2018,08,07,02,26,16.60
2018,08,07,02,27,16.60
2018,08,07,02,28,16.50
2018,08,07,02,29,16.50
2018,08,07,02,30,16.50
2018,08,07,02,31,16.50
2018,08,07,02,32,16.40
2018,08,07,02,33,16.40
2018,08,07,02,34,16.40
2018,08,07,02,35,16.40
2018,08,07,02,36,16.30
2018,08,07,02,37,16.30
2018,08,07,02,38,16.30
2018,08,07,02,39,16.30
2018,08,07,02,40,16.20
2018,08,07,02,41,16.20
2018,08,07,02,42,16.20
2018,08,07,02,43,16.20
2018,08,07,02,44,16.10
2018,08,07,02,45,16.10
2018,08,07,02,46,16.10
2018,08,07,02,47,16.10
2018,08,07,02,48,16.10
2018,08,07,02,49,16.10
2018,08,07,02,50,16.10
2018,08,07,02,51,16.10
2018,08,07,02,52,16.10
2018,08,07,02,53,16.10
2018,08,07,02,54,16.10
2018,08,07,02,55,16.10
2018,08,07,02,56,16.10
2018,08,07,02,57,16.10
2018,08,07,02,58,16.10
2018,08,07,02,59,16.10
2018,08,07,03,00,16.10
2018,08,07,03,01,16.10
2018,08,07,03,02,16.10
2018,08,07,03,03,16.10
2018,08,07,03,04,16.10
2018,08,07,03,05,16.10
2018,08,07,03,06,16.10
2018,08,07,03,07,16.10
2018,08,07,03,08,16.10
2018,08,07,03,09,16.10
2018,08,07,03,10,16.10
2018,08,07,03,11,16.00
2018,08,07,03,12,16.00
2018,08,07,03,13,15.90
2018,08,07,03,14,15.90
2018,08,07,03,15,15.90
2018,08,07,03,16,15.90
2018,08,07,03,17,15.80
2018,08,07,03,18,15.80
2018,08,07,03,19,15.80
2018,08,07,03,20,15.80
2018,08,07,03,21,15.80
2018,08,07,03,22,15.70
2018,08,07,03,23,15.70
2018,08,07,03,24,15.70
2018,08,07,03,25,15.70
2018,08,07,03,26,15.70
2018,08,07,03,27,15.70
2018,08,07,03,28,15.70
2018,08,07,03,29,15.70
2018,08,07,03,30,15.70
2018,08,07,03,31,15.70
2018,08,07,03,32,15.70
2018,08,07,03,33,15.70
2018,08,07,03,34,15.70
2018,08,07,03,35,15.70
2018,08,07,03,36,15.70
2018,08,07,03,37,15.70
2018,08,07,03,38,15.70
2018,08,07,03,39,15.70
2018,08,07,03,40,15.60
2018,08,07,03,41,15.60
2018,08,07,03,42,15.60
2018,08,07,03,43,15.60
2018,08,07,03,44,15.60
2018,08,07,03,45,15.60
2018,08,07,03,46,15.60
2018,08,07,03,47,15.50
2018,08,07,03,48,15.50
2018,08,07,03,49,15.50
2018,08,07,03,50,15.50
2018,08,07,03,51,15.50
2018,08,07,03,52,15.50
2018,08,07,03,53,15.40
2018,08,07,03,54,15.40
2018,08,07,03,55,15.40
2018,08,07,03,56,15.40
2018,08,07,03,57,15.40
2018,08,07,03,58,15.40
2018,08,07,03,59,15.40
2018,08,07,04,00,15.40
2018,08,07,04,01,15.40
2018,08,07,04,02,15.40
2018,08,07,04,03,15.40
2018,08,07,04,04,15.40
2018,08,07,04,05,15.40
2018,08,07,04,06,15.40
2018,08,07,04,07,15.40
2018,08,07,04,08,15.40
2018,08,07,04,09,15.40
2018,08,07,04,10,15.40
2018,08,07,04,11,15.40
2018,08,07,04,12,15.30
2018,08,07,04,13,15.30
2018,08,07,04,14,15.30
2018,08,07,04,15,15.30
2018,08,07,04,16,15.30
2018,08,07,04,17,15.30
2018,08,07,04,18,15.30
2018,08,07,04,19,15.30
2018,08,07,04,20,15.30
2018,08,07,04,21,15.30
2018,08,07,04,22,15.30
2018,08,07,04,23,15.30
2018,08,07,04,24,15.20
2018,08,07,04,25,15.20
2018,08,07,04,26,15.20
2018,08,07,04,27,15.20
2018,08,07,04,28,15.20
2018,08,07,04,29,15.20
2018,08,07,04,30,15.20
2018,08,07,04,31,15.20
2018,08,07,04,32,15.20
2018,08,07,04,33,15.20
2018,08,07,04,34,15.20
2018,08,07,04,35,15.20
2018,08,07,04,36,15.10
2018,08,07,04,37,15.10
2018,08,07,04,38,15.20
2018,08,07,04,39,15.20
2018,08,07,04,40,15.20
2018,08,07,04,41,15.10
2018,08,07,04,42,15.10
2018,08,07,04,43,15.10
2018,08,07,04,44,15.10
2018,08,07,04,45,15.10
2018,08,07,04,46,15.10
2018,08,07,04,47,15.10
2018,08,07,04,48,15.10
2018,08,07,04,49,15.10
2018,08,07,04,50,15.10
2018,08,07,04,51,15.00
2018,08,07,04,52,15.00
2018,08,07,04,53,15.00
2018,08,07,04,54,15.00
2018,08,07,04,55,15.00
2018,08,07,04,56,15.00
2018,08,07,04,57,15.00
2018,08,07,04,58,15.00
2018,08,07,04,59,14.90
2018,08,07,05,00,14.90
2018,08,07,05,01,14.90
2018,08,07,05,02,14.90
2018,08,07,05,03,14.90
2018,08,07,05,04,14.90
2018,08,07,05,05,14.90
2018,08,07,05,06,14.80
2018,08,07,05,07,14.80
2018,08,07,05,08,14.80
2018,08,07,05,09,14.80
2018,08,07,05,10,14.80
2018,08,07,05,11,14.80
2018,08,07,05,12,14.80
2018,08,07,05,13,14.80
2018,08,07,05,14,14.80
2018,08,07,05,15,14.80
2018,08,07,05,16,14.80
2018,08,07,05,17,14.90
2018,08,07,05,18,14.90
2018,08,07,05,19,14.90
2018,08,07,05,20,14.90
2018,08,07,05,21,14.90
2018,08,07,05,22,14.90
2018,08,07,05,23,14.90
2018,08,07,05,24,14.90
2018,08,07,05,25,14.90
2018,08,07,05,26,14.90
2018,08,07,05,27,14.90
2018,08,07,05,28,14.90
2018,08,07,05,29,14.90
2018,08,07,05,30,14.90
2018,08,07,05,31,14.80
2018,08,07,05,32,14.80
2018,08,07,05,33,14.80
2018,08,07,05,34,14.80
2018,08,07,05,35,14.80
2018,08,07,05,36,14.80
2018,08,07,05,37,14.80
2018,08,07,05,38,14.80
2018,08,07,05,39,14.80
2018,08,07,05,40,14.80
2018,08,07,05,41,14.80
2018,08,07,05,42,14.80
2018,08,07,05,43,14.80
2018,08,07,05,44,14.80
2018,08,07,05,45,14.80
2018,08,07,05,46,14.80
2018,08,07,05,47,14.80
2018,08,07,05,48,14.80
2018,08,07,05,49,14.90
2018,08,07,05,50,14.90
2018,08,07,05,51,14.90
2018,08,07,05,52,14.90
2018,08,07,05,53,14.90
2018,08,07,05,54,14.90
2018,08,07,05,55,14.90
2018,08,07,05,56,14.80
2018,08,07,05,57,14.80
2018,08,07,05,58,14.80
2018,08,07,05,59,14.80
2018,08,07,06,00,14.80
2018,08,07,06,01,14.80
2018,08,07,06,02,14.80
2018,08,07,06,03,14.80
2018,08,07,06,04,14.80
2018,08,07,06,05,14.70
2018,08,07,06,06,14.70
2018,08,07,06,07,14.70
2018,08,07,06,08,14.70
2018,08,07,06,09,14.70
2018,08,07,06,10,14.70
2018,08,07,06,11,14.70
2018,08,07,06,12,14.60
2018,08,07,06,13,14.60
2018,08,07,06,14,14.60
2018,08,07,06,15,14.60
2018,08,07,06,16,14.60
2018,08,07,06,17,14.60
2018,08,07,06,18,14.60
2018,08,07,06,19,14.60
2018,08,07,06,20,14.60
2018,08,07,06,21,14.60
2018,08,07,06,22,14.60
2018,08,07,06,23,14.60
2018,08,07,06,24,14.60
2018,08,07,06,25,14.60
2018,08,07,06,26,14.60
2018,08,07,06,27,14.60
2018,08,07,06,28,14.60
2018,08,07,06,29,14.60
2018,08,07,06,30,14.50
2018,08,07,06,31,14.50
2018,08,07,06,32,14.50
2018,08,07,06,33,14.50
2018,08,07,06,34,14.50
2018,08,07,06,35,14.50
2018,08,07,06,36,14.50
2018,08,07,06,37,14.50
2018,08,07,06,38,14.50
2018,08,07,06,39,14.50
2018,08,07,06,40,14.50
2018,08,07,06,41,14.50
2018,08,07,06,42,14.50
2018,08,07,06,43,14.50
2018,08,07,06,44,14.50
2018,08,07,06,45,14.50
2018,08,07,06,46,14.50
2018,08,07,06,47,14.50
2018,08,07,06,48,14.50
2018,08,07,06,49,14.50
2018,08,07,06,50,14.60
2018,08,07,06,51,14.60
2018,08,07,06,52,14.60
2018,08,07,06,53,14.60
2018,08,07,06,54,14.60
2018,08,07,06,55,14.60
2018,08,07,06,56,14.60
2018,08,07,06,57,14.60
2018,08,07,06,58,14.60
2018,08,07,06,59,14.60
2018,08,07,07,00,14.70
2018,08,07,07,01,14.70
2018,08,07,07,02,14.70
2018,08,07,07,03,14.80
2018,08,07,07,04,14.80
2018,08,07,07,05,14.90
2018,08,07,07,06,15.00
2018,08,07,07,07,15.00
2018,08,07,07,08,15.10
2018,08,07,07,09,15.10
2018,08,07,07,10,15.20
2018,08,07,07,11,15.20
2018,08,07,07,12,15.30
2018,08,07,07,13,15.30
2018,08,07,07,14,15.30
2018,08,07,07,15,15.40
2018,08,07,07,16,15.40
2018,08,07,07,17,15.40
2018,08,07,07,18,15.40
2018,08,07,07,19,15.50
2018,08,07,07,20,15.50
2018,08,07,07,21,15.60
2018,08,07,07,22,15.60
2018,08,07,07,23,15.70
2018,08,07,07,24,15.70
2018,08,07,07,25,15.80
2018,08,07,07,26,15.90
2018,08,07,07,27,16.00
2018,08,07,07,28,16.10
2018,08,07,07,29,16.20
2018,08,07,07,30,16.30
2018,08,07,07,31,16.30
2018,08,07,07,32,16.40
2018,08,07,07,33,16.50
2018,08,07,07,34,16.60
2018,08,07,07,35,16.70
2018,08,07,07,36,16.80
2018,08,07,07,37,16.90
2018,08,07,07,38,17.00
2018,08,07,07,39,17.10
2018,08,07,07,40,17.10
2018,08,07,07,41,17.20
2018,08,07,07,42,17.30
2018,08,07,07,43,17.30
2018,08,07,07,44,17.30
2018,08,07,07,45,17.40
2018,08,07,07,46,17.40
2018,08,07,07,47,17.50
2018,08,07,07,48,17.50
2018,08,07,07,49,17.60
2018,08,07,07,50,17.60
2018,08,07,07,51,17.70
2018,08,07,07,52,17.80
2018,08,07,07,53,17.80
2018,08,07,07,54,17.90
2018,08,07,07,55,18.00
2018,08,07,07,56,18.10
2018,08,07,07,57,18.10
2018,08,07,07,58,18.20
2018,08,07,07,59,18.20
2018,08,07,08,00,18.30
2018,08,07,08,01,18.30
2018,08,07,08,02,18.40
2018,08,07,08,03,18.50
2018,08,07,08,04,18.50
2018,08,07,08,05,18.60
2018,08,07,08,06,18.60
2018,08,07,08,07,18.70
2018,08,07,08,08,18.70
2018,08,07,08,09,18.80
2018,08,07,08,10,18.80
2018,08,07,08,11,18.90
2018,08,07,08,12,19.00
2018,08,07,08,13,19.10
2018,08,07,08,14,19.20
2018,08,07,08,15,19.30
2018,08,07,08,16,19.40
2018,08,07,08,17,19.50
2018,08,07,08,18,19.50
2018,08,07,08,19,19.60
2018,08,07,08,20,19.70
2018,08,07,08,21,19.80
2018,08,07,08,22,19.80
2018,08,07,08,23,19.90
2018,08,07,08,24,20.00
2018,08,07,08,25,20.10
2018,08,07,08,26,20.10
2018,08,07,08,27,20.10
2018,08,07,08,28,20.20
2018,08,07,08,29,20.20
2018,08,07,08,30,20.30
2018,08,07,08,31,20.30
2018,08,07,08,32,20.40
2018,08,07,08,33,20.50
2018,08,07,08,34,20.50
2018,08,07,08,35,20.60
2018,08,07,08,36,20.60
2018,08,07,08,37,20.70
2018,08,07,08,38,20.70
2018,08,07,08,39,20.70
2018,08,07,08,40,20.80
2018,08,07,08,41,20.80
2018,08,07,08,42,20.90
2018,08,07,08,43,21.00
2018,08,07,08,44,21.00
2018,08,07,08,45,21.10
2018,08,07,08,46,21.10
2018,08,07,08,47,21.20
2018,08,07,08,48,21.20
2018,08,07,08,49,21.20
2018,08,07,08,50,21.30
2018,08,07,08,51,21.30
2018,08,07,08,52,21.40
2018,08,07,08,53,21.40
2018,08,07,08,54,21.50
2018,08,07,08,55,21.60
2018,08,07,08,56,21.60
2018,08,07,08,57,21.60
2018,08,07,08,58,21.70
2018,08,07,08,59,21.70
2018,08,07,09,00,21.80
2018,08,07,09,01,21.80
2018,08,07,09,02,21.80
2018,08,07,09,03,21.80
2018,08,07,09,04,21.80
2018,08,07,09,05,21.80
2018,08,07,09,06,21.80
2018,08,07,09,07,21.80
2018,08,07,09,08,21.80
2018,08,07,09,09,21.80
2018,08,07,09,10,21.80
2018,08,07,09,11,21.80
2018,08,07,09,12,21.80
2018,08,07,09,13,21.90
2018,08,07,09,14,21.90
2018,08,07,09,15,21.90
2018,08,07,09,16,22.00
2018,08,07,09,17,22.00
2018,08,07,09,18,22.00
2018,08,07,09,19,22.00
2018,08,07,09,20,22.00
2018,08,07,09,21,22.10
2018,08,07,09,22,22.10
2018,08,07,09,23,22.10
2018,08,07,09,24,22.00
2018,08,07,09,25,22.00
2018,08,07,09,26,21.90
2018,08,07,09,27,21.80
2018,08,07,09,28,21.80
2018,08,07,09,29,21.80
2018,08,07,09,30,21.80
2018,08,07,09,31,21.80
2018,08,07,09,32,21.80
2018,08,07,09,33,21.80
2018,08,07,09,34,21.80
2018,08,07,09,35,21.80
2018,08,07,09,36,21.90
2018,08,07,09,37,22.00
2018,08,07,09,38,22.00
2018,08,07,09,39,22.10
2018,08,07,09,40,22.10
2018,08,07,09,41,22.10
2018,08,07,09,42,22.10
2018,08,07,09,43,22.10
2018,08,07,09,44,22.00
2018,08,07,09,45,21.90
2018,08,07,09,46,21.90
2018,08,07,09,47,21.90
2018,08,07,09,48,21.90
2018,08,07,09,49,22.00
2018,08,07,09,50,22.00
2018,08,07,09,51,22.10
2018,08,07,09,52,22.10
2018,08,07,09,53,22.20
2018,08,07,09,54,22.20
2018,08,07,09,55,22.20
2018,08,07,09,56,22.30
2018,08,07,09,57,22.30
2018,08,07,09,58,22.40
2018,08,07,09,59,22.40
2018,08,07,10,00,22.50
2018,08,07,10,01,22.50
2018,08,07,10,02,22.60
2018,08,07,10,03,22.60
2018,08,07,10,04,22.60
2018,08,07,10,05,22.60
2018,08,07,10,06,22.60
2018,08,07,10,07,22.60
2018,08,07,10,08,22.60
2018,08,07,10,09,22.60
2018,08,07,10,10,22.60
2018,08,07,10,11,22.60
2018,08,07,10,12,22.60
2018,08,07,10,13,22.60
2018,08,07,10,14,22.60
2018,08,07,10,15,22.70
2018,08,07,10,16,22.70
2018,08,07,10,17,22.80
2018,08,07,10,18,22.80
2018,08,07,10,19,22.90
2018,08,07,10,20,23.00
2018,08,07,10,21,23.10
2018,08,07,10,22,23.20
2018,08,07,10,23,23.30
2018,08,07,10,24,23.40
2018,08,07,10,25,23.50
2018,08,07,10,26,23.60
2018,08,07,10,27,23.60
2018,08,07,10,28,23.70
2018,08,07,10,29,23.80
2018,08,07,10,30,23.80
2018,08,07,10,31,23.80
2018,08,07,10,32,23.80
2018,08,07,10,33,23.80
2018,08,07,10,34,23.90
2018,08,07,10,35,23.90
2018,08,07,10,36,24.00
2018,08,07,10,37,24.10
2018,08,07,10,38,24.10
2018,08,07,10,39,24.10
2018,08,07,10,40,24.20
2018,08,07,10,41,24.20
2018,08,07,10,42,24.20
2018,08,07,10,43,24.20
2018,08,07,10,44,24.30
2018,08,07,10,45,24.30
2018,08,07,10,46,24.40
2018,08,07,10,47,24.40
2018,08,07,10,48,24.50
2018,08,07,10,49,24.60
2018,08,07,10,50,24.60
2018,08,07,10,51,24.70
2018,08,07,10,52,24.70
2018,08,07,10,53,24.70
2018,08,07,10,54,24.60
2018,08,07,10,55,24.60
2018,08,07,10,56,24.60
2018,08,07,10,57,24.60
2018,08,07,10,58,24.60
2018,08,07,10,59,24.60
2018,08,07,11,00,24.50
2018,08,07,11,01,24.50
2018,08,07,11,02,24.40
2018,08,07,11,03,24.40
2018,08,07,11,04,24.30
2018,08,07,11,05,24.30
2018,08,07,11,06,24.20
2018,08,07,11,07,24.20
2018,08,07,11,08,24.10
2018,08,07,11,09,24.10
2018,08,07,11,10,24.10
2018,08,07,11,11,24.00
2018,08,07,11,12,24.00
2018,08,07,11,13,23.90
2018,08,07,11,14,23.90
2018,08,07,11,15,23.80
2018,08,07,11,16,23.80
2018,08,07,11,17,23.70
2018,08,07,11,18,23.60
2018,08,07,11,19,23.50
2018,08,07,11,20,23.40
2018,08,07,11,21,23.40
2018,08,07,11,22,23.40
2018,08,07,11,23,23.40
2018,08,07,11,24,23.40
2018,08,07,11,25,23.40
2018,08,07,11,26,23.50
2018,08,07,11,27,23.50
2018,08,07,11,28,23.60
2018,08,07,11,29,23.60
2018,08,07,11,30,23.60
2018,08,07,11,31,23.50
2018,08,07,11,32,23.50
2018,08,07,11,33,23.50
2018,08,07,11,34,23.50
2018,08,07,11,35,23.50
2018,08,07,11,36,23.50
2018,08,07,11,37,23.50
2018,08,07,11,38,23.40
2018,08,07,11,39,23.40
2018,08,07,11,40,23.40
2018,08,07,11,41,23.50
2018,08,07,11,42,23.50
2018,08,07,11,43,23.60
2018,08,07,11,44,23.60
2018,08,07,11,45,23.70
2018,08,07,11,46,23.80
2018,08,07,11,47,23.80
2018,08,07,11,48,23.90
2018,08,07,11,49,24.00
2018,08,07,11,50,24.10
2018,08,07,11,51,24.10
2018,08,07,11,52,24.20
2018,08,07,11,53,24.20
2018,08,07,11,54,24.20
2018,08,07,11,55,24.20
2018,08,07,11,56,24.20
2018,08,07,11,57,24.30
2018,08,07,11,58,24.30
2018,08,07,11,59,24.30
2018,08,07,12,00,24.40
2018,08,07,12,01,24.40
2018,08,07,12,02,24.50
2018,08,07,12,03,24.60
2018,08,07,12,04,24.60
2018,08,07,12,05,24.70
2018,08,07,12,06,24.70
2018,08,07,12,07,24.60
2018,08,07,12,08,24.60
2018,08,07,12,09,24.60
2018,08,07,12,10,24.60
2018,08,07,12,11,24.60
2018,08,07,12,12,24.60
2018,08,07,12,13,24.50
2018,08,07,12,14,24.50
2018,08,07,12,15,24.40
2018,08,07,12,16,24.40
2018,08,07,12,17,24.40
2018,08,07,12,18,24.40
2018,08,07,12,19,24.30
2018,08,07,12,20,24.30
2018,08,07,12,21,24.40
2018,08,07,12,22,24.40
2018,08,07,12,23,24.50
2018,08,07,12,24,24.50
2018,08,07,12,25,24.50
2018,08,07,12,26,24.60
2018,08,07,12,27,24.60
2018,08,07,12,28,24.70
2018,08,07,12,29,24.70
2018,08,07,12,30,24.80
2018,08,07,12,31,24.80
2018,08,07,12,32,24.80
2018,08,07,12,33,24.90
2018,08,07,12,34,25.00
2018,08,07,12,35,25.00
2018,08,07,12,36,25.00
2018,08,07,12,37,25.00
2018,08,07,12,38,24.90
2018,08,07,12,39,24.90
2018,08,07,12,40,24.90
2018,08,07,12,41,24.90
2018,08,07,12,42,24.90
2018,08,07,12,43,25.00
2018,08,07,12,44,25.00
2018,08,07,12,45,25.10
2018,08,07,12,46,25.20
2018,08,07,12,47,25.30
2018,08,07,12,48,25.40
2018,08,07,12,49,25.50
2018,08,07,12,50,25.60
2018,08,07,12,51,25.70
2018,08,07,12,52,25.70
2018,08,07,12,53,25.70
2018,08,07,12,54,25.70
2018,08,07,12,55,25.70
2018,08,07,12,56,25.70
2018,08,07,12,57,25.70
2018,08,07,12,58,25.70
2018,08,07,12,59,25.70
2018,08,07,13,00,25.70
2018,08,07,13,01,25.60
2018,08,07,13,02,25.60
2018,08,07,13,03,25.60
2018,08,07,13,04,25.60
2018,08,07,13,05,25.60
2018,08,07,13,06,25.60
2018,08,07,13,07,25.60
2018,08,07,13,08,25.60
2018,08,07,13,09,25.60
2018,08,07,13,10,25.60
2018,08,07,13,11,25.60
2018,08,07,13,12,25.70
2018,08,07,13,13,25.70
2018,08,07,13,14,25.80
2018,08,07,13,15,25.90
2018,08,07,13,16,25.90
2018,08,07,13,17,26.00
2018,08,07,13,18,26.10
2018,08,07,13,19,26.10
2018,08,07,13,20,26.20
2018,08,07,13,21,26.30
2018,08,07,13,22,26.40
2018,08,07,13,23,26.40
2018,08,07,13,24,26.40
2018,08,07,13,25,26.40
2018,08,07,13,26,26.40
2018,08,07,13,27,26.40
2018,08,07,13,28,26.40
2018,08,07,13,29,26.50
2018,08,07,13,30,26.50
2018,08,07,13,31,26.60
2018,08,07,13,32,26.70
2018,08,07,13,33,26.70
2018,08,07,13,34,26.80
2018,08,07,13,35,26.80
2018,08,07,13,36,26.80
2018,08,07,13,37,26.80
2018,08,07,13,38,26.80
2018,08,07,13,39,26.80
2018,08,07,13,40,26.80
2018,08,07,13,41,26.80
2018,08,07,13,42,26.80
2018,08,07,13,43,26.80
2018,08,07,13,44,26.80
2018,08,07,13,45,26.80
2018,08,07,13,46,26.80
2018,08,07,13,47,26.70
2018,08,07,13,48,26.50
2018,08,07,13,49,26.50
2018,08,07,13,50,26.50
2018,08,07,13,51,26.40
2018,08,07,13,52,26.40
2018,08,07,13,53,26.40
2018,08,07,13,54,26.50
2018,08,07,13,55,26.50
2018,08,07,13,56,26.40
2018,08,07,13,57,26.40
2018,08,07,13,58,26.40
2018,08,07,13,59,26.50
2018,08,07,14,00,26.50
2018,08,07,14,01,26.50
2018,08,07,14,02,26.50
2018,08,07,14,03,26.50
2018,08,07,14,04,26.50
2018,08,07,14,05,26.60
2018,08,07,14,06,26.70
2018,08,07,14,07,26.70
2018,08,07,14,08,26.70
2018,08,07,14,09,26.80
2018,08,07,14,10,26.80
2018,08,07,14,11,26.90
2018,08,07,14,12,27.00
2018,08,07,14,13,27.10
2018,08,07,14,14,27.10
2018,08,07,14,15,27.20
2018,08,07,14,16,27.20
2018,08,07,14,17,27.20
2018,08,07,14,18,27.30
2018,08,07,14,19,27.40
2018,08,07,14,20,27.60
2018,08,07,14,21,27.70
2018,08,07,14,22,27.80
2018,08,07,14,23,27.90
2018,08,07,14,24,27.90
2018,08,07,14,25,27.90
2018,08,07,14,26,27.90
2018,08,07,14,27,27.90
2018,08,07,14,28,27.90
2018,08,07,14,29,27.90
2018,08,07,14,30,28.00
2018,08,07,14,31,28.00
2018,08,07,14,32,28.00
2018,08,07,14,33,28.00
2018,08,07,14,34,28.00
2018,08,07,14,35,28.00
2018,08,07,14,36,28.10
2018,08,07,14,37,28.10
2018,08,07,14,38,28.10
2018,08,07,14,39,28.20
2018,08,07,14,40,28.30
2018,08,07,14,41,28.20
2018,08,07,14,42,28.20
2018,08,07,14,43,28.20
2018,08,07,14,44,28.20
2018,08,07,14,45,28.20
2018,08,07,14,46,28.20
2018,08,07,14,47,28.20
2018,08,07,14,48,28.30
2018,08,07,14,49,28.30
2018,08,07,14,50,28.30
2018,08,07,14,51,28.40
2018,08,07,14,52,28.40
2018,08,07,14,53,28.40
2018,08,07,14,54,28.40
2018,08,07,14,55,28.40
2018,08,07,14,56,28.40
2018,08,07,14,57,28.40
2018,08,07,14,58,28.50
2018,08,07,14,59,28.60
2018,08,07,15,00,28.70
2018,08,07,15,01,28.70
2018,08,07,15,02,28.70
2018,08,07,15,03,28.70
2018,08,07,15,04,28.80
2018,08,07,15,05,28.80
2018,08,07,15,06,28.80
2018,08,07,15,07,28.70
2018,08,07,15,08,28.70
2018,08,07,15,09,28.60
2018,08,07,15,10,28.60
2018,08,07,15,11,28.50
2018,08,07,15,12,28.40
2018,08,07,15,13,28.40
2018,08,07,15,14,28.30
2018,08,07,15,15,28.30
2018,08,07,15,16,28.30
2018,08,07,15,17,28.30
2018,08,07,15,18,28.30
2018,08,07,15,19,28.30
2018,08,07,15,20,28.30
2018,08,07,15,21,28.30
2018,08,07,15,22,28.30
2018,08,07,15,23,28.40
2018,08,07,15,24,28.40
2018,08,07,15,25,28.40
2018,08,07,15,26,28.40
2018,08,07,15,27,28.40
2018,08,07,15,28,28.40
2018,08,07,15,29,28.40
2018,08,07,15,30,28.40
2018,08,07,15,31,28.40
2018,08,07,15,32,28.50
2018,08,07,15,33,28.50
2018,08,07,15,34,28.60
2018,08,07,15,35,28.60
2018,08,07,15,36,28.50
2018,08,07,15,37,28.40
2018,08,07,15,38,28.40
2018,08,07,15,39,28.40
2018,08,07,15,40,28.40
2018,08,07,15,41,28.50
2018,08,07,15,42,28.50
2018,08,07,15,43,28.50
2018,08,07,15,44,28.60
2018,08,07,15,45,28.70
2018,08,07,15,46,28.80
2018,08,07,15,47,28.80
2018,08,07,15,48,28.90
2018,08,07,15,49,28.90
2018,08,07,15,50,29.00
2018,08,07,15,51,29.10
2018,08,07,15,52,29.20
2018,08,07,15,53,29.30
2018,08,07,15,54,29.30
2018,08,07,15,55,29.20
2018,08,07,15,56,29.00
2018,08,07,15,57,28.90
2018,08,07,15,58,28.70
2018,08,07,15,59,28.40
2018,08,07,16,00,28.30
2018,08,07,16,01,28.10
2018,08,07,16,02,28.10
2018,08,07,16,03,28.10
2018,08,07,16,04,28.20
2018,08,07,16,05,28.10
2018,08,07,16,06,28.10
2018,08,07,16,07,28.20
2018,08,07,16,08,28.10
2018,08,07,16,09,28.10
2018,08,07,16,10,28.10
2018,08,07,16,11,28.00
2018,08,07,16,12,28.00
2018,08,07,16,13,27.90
2018,08,07,16,14,27.90
2018,08,07,16,15,27.90
2018,08,07,16,16,27.90
2018,08,07,16,17,27.90
2018,08,07,16,18,28.00
2018,08,07,16,19,28.00
2018,08,07,16,20,28.10
2018,08,07,16,21,28.00
2018,08,07,16,22,27.90
2018,08,07,16,23,27.80
2018,08,07,16,24,27.80
2018,08,07,16,25,27.80
2018,08,07,16,26,27.80
2018,08,07,16,27,27.90
2018,08,07,16,28,28.10
2018,08,07,16,29,28.20
2018,08,07,16,30,28.20
2018,08,07,16,31,28.20
2018,08,07,16,32,28.30
2018,08,07,16,33,28.30
2018,08,07,16,34,28.20
2018,08,07,16,35,28.20
2018,08,07,16,36,28.20
2018,08,07,16,37,28.20
2018,08,07,16,38,28.20
2018,08,07,16,39,28.20
2018,08,07,16,40,28.20
2018,08,07,16,41,28.20
2018,08,07,16,42,28.30
2018,08,07,16,43,28.30
2018,08,07,16,44,28.40
2018,08,07,16,45,28.50
2018,08,07,16,46,28.60
2018,08,07,16,47,28.60
2018,08,07,16,48,28.70
2018,08,07,16,49,28.70
2018,08,07,16,50,28.70
2018,08,07,16,51,28.70
2018,08,07,16,52,28.70
2018,08,07,16,53,28.60
2018,08,07,16,54,28.50
2018,08,07,16,55,28.50
2018,08,07,16,56,28.50
2018,08,07,16,57,28.50
2018,08,07,16,58,28.40
2018,08,07,16,59,28.40
2018,08,07,17,00,28.40
2018,08,07,17,01,28.30
2018,08,07,17,02,28.20
2018,08,07,17,03,28.00
2018,08,07,17,04,28.00
2018,08,07,17,05,27.90
2018,08,07,17,06,27.90
2018,08,07,17,07,27.90
2018,08,07,17,08,27.90
2018,08,07,17,09,27.90
2018,08,07,17,10,27.90
2018,08,07,17,11,27.90
2018,08,07,17,12,27.90
2018,08,07,17,13,28.00
2018,08,07,17,14,28.10
2018,08,07,17,15,28.10
2018,08,07,17,16,28.10
2018,08,07,17,17,28.10
2018,08,07,17,18,28.00
2018,08,07,17,19,28.00